Regional Weather Roundup
Issued by NWS

Home | Current Version | Previous Version | Graphics & Text | Print | Product List | Glossary On
Versions: 1 2 3 4 5 6 7 8 9 10 11 12 13 14 15 16 17 18 19 20 21 22 23 24 25 26 27
000
ASUS43 KDMX 181507
RWRIA

WEATHER ROUNDUP FOR IOWA
NATIONAL WEATHER SERVICE DES MOINES IA
1000 AM CDT FRI APR 18 2014

NOTE: "FAIR" INDICATES FEW OR NO CLOUDS BELOW 12,000 FEET WITH NO
SIGNIFICANT WEATHER AND/OR OBSTRUCTIONS TO VISIBILITY.

* - THESE STATIONS ARE NOT NWS STATIONS...THUS NOT UNDER NWS
QUALITY CONTROL.  THEY ALSO DO NOT REPORT WEATHER SUCH
AS PRECIPITATION OR FOG.

IAZ001>003-012>014-020>022-031>034-043>046-181600-
   NORTHWEST IOWA

CITY           SKY/WX    TMP DP  RH WIND       PRES   REMARKS
CARROLL *      SUNNY     45  34  65 SE17      30.30F
CHEROKEE *     MOSUNNY   45  36  70 SE15      30.26F
DENISON *      SUNNY     48  34  57 S12       30.27S
LE MARS *      CLOUDY    46  34  61 SE13G20   30.24S
ORANGE CITY *  SUNNY     46  32  57 SE9       30.24S
SHELDON *      MOSUNNY   45  34  65 SE18G24   30.24F
SIOUX CITY     MOSUNNY   47  33  58 SE14      30.24F
SPENCER        CLOUDY    43  33  68 SE13      30.29S
STORM LAKE *   SUNNY     43  34  70 SE16G22   30.29S
$$

IAZ055>058-069>071-079>083-090>094-181600-
   SOUTHWEST IOWA

CITY           SKY/WX    TMP DP  RH WIND       PRES   REMARKS
ATLANTIC *     SUNNY     50  34  53 SE8       30.29F
AUDUBON *      SUNNY     48  34  57 SE9       30.30F
CLARINDA *     SUNNY     50  37  62 VRB7      30.32F
COUNCIL BLFS * SUNNY     46  36  66 SE9       30.27S
CRESTON *      SUNNY     48  36  61 E9        30.31F
HARLAN  *      SUNNY     48  36  61 SE9       30.32S
LAMONI         SUNNY     47  35  63 VRB6      30.32F
RED OAK *      SUNNY     50  37  62 SE3       30.31R
SHENANDOAH *   SUNNY     52  36  54 S5        30.31S
$$

IAZ047>049-059>061-072>074-084-181600-
   CENTRAL IOWA

CITY           SKY/WX    TMP DP  RH WIND       PRES   REMARKS
AMES           SUNNY     43  33  68 SE9       30.35S
ANKENY *       SUNNY     43  34  70 SE7       30.36S
CHARITON *     SUNNY     46  36  66 E7        30.34F
DES MOINES     MOSUNNY   45  34  65 SE7       30.36S
GRINNELL*      SUNNY     43  34  70 E6        30.37R
KNOXVILLE *    SUNNY     45  34  65 E6        30.35S
MARSHALLTOWN   SUNNY     41  33  73 E9        30.36R
NEWTON *       SUNNY     43  34  70 SE6       30.37R
PELLA *        SUNNY     46  36  66 E6        30.37S
PERRY *          N/A     45  32  61 SE10      30.34S
$$

IAZ004>006-015-016-023>025-035-036-181600-
   NORTH CENTRAL IOWA

CITY           SKY/WX    TMP DP  RH WIND       PRES   REMARKS
ALGONA *       SUNNY     41  32  70 SE13      30.32S
CLARION *      SUNNY     43  32  65 SE13      30.33F
ESTHERVILLE    CLOUDY    39  32  76 SE14      30.30S WCI  31
FORT DODGE *   SUNNY     45  34  65 SE8       30.33S
MASON CITY     MOSUNNY   39  31  72 SE12      30.36S WCI  32
FOREST CITY *  SUNNY     39  32  75 E13       30.33F WCI  32
IOWA FALLS *     N/A     41  32  70 E8        30.36S
$$

IAZ007>011-017>019-026>030-037>042-050>054-066-181600-
   NORTHEAST IOWA

CITY           SKY/WX    TMP DP  RH WIND       PRES   REMARKS
CEDAR RAPIDS   SUNNY     42  33  70 E8        30.35S
CHARLES CITY * CLOUDY    39  30  70 SE7G13    30.38R WCI  34
CLINTON *      SUNNY     45  34  65 E8        30.39S
DECORAH *      PTSUNNY   39  28  65 E8        30.36S WCI  34
DUBUQUE        SUNNY     41  32  70 NE6       30.36S
MONTICELLO *   SUNNY     45  34  65 E6        30.36F
OELWEIN *      SUNNY    N/A N/A N/A E8        30.37S
WATERLOO       SUNNY     41  31  67 E8        30.37R
$$

IAZ064-065-067-068-078-181600-
   EAST CENTRAL IOWA

CITY           SKY/WX    TMP DP  RH WIND       PRES   REMARKS
DAVENPORT      SUNNY     45  35  68 E8        30.38S
IOWA CITY      SUNNY     45  36  70 E6        30.38S
MT. PLEASANT * SUNNY     50  34  53 N3        30.36S
MUSCATINE *    SUNNY     46  36  66 NE6       30.37S
QUAD CITIES    SUNNY     46  35  65 VRB3      30.36S
$$

IAZ062-063-075>077-085>089-095>099-181600-
   SOUTHEAST IOWA

CITY           SKY/WX    TMP DP  RH WIND       PRES   REMARKS
BURLINGTON     SUNNY     49  37  63 VRB3      30.35S
FAIRFIELD *    SUNNY     46  34  61 CALM      30.36F
FORT MADISON * SUNNY     48  39  71 N5        30.35S
KEOKUK *       SUNNY     50  36  57 VRB5      30.34S
OSKALOOSA *      N/A     45  34  65 E5        30.36F
CENTERVILLE *  SUNNY     48  36  61 E7        30.35F
OTTUMWA        SUNNY     46  34  62 VRB7      30.35F
WASHINGTON *   SUNNY     46  34  61 CALM      30.36S
$$

ABBREVIATIONS USED IN REMARKS
   TC - TEMPERATURES IN CELSIUS
  WCI - WIND CHILL INDEX
   HX - HEAT INDEX
  VSB - VISIBILITY
$$




USA.gov is the U.S. government's official web portal to all federal, state and local government web resources and services.